Regional Weather Roundup
Issued by NWS Pendleton, OR

Home | Current Version | Previous Version | Text Only | Print | Product List | Glossary On
Versions: 1 2 3 4 5 6 7 8 9 10 11 12 13 14 15 16 17 18 19 20 21 22 23 24 25 26 27 28 29 30 31 32 33 34 35 36 37 38 39 40 41 42 43 44 45 46 47 48 49 50
070
ASUS46 KPDT 170204
RWRPDT
PENDLETON REGIONAL WEATHER ROUNDUP
NATIONAL WEATHER SERVICE PENDLETON OREGON
700 PM PDT MON OCT 16 2017

NOTE: FAIR INDICATES FEW OR NO CLOUDS BELOW 12,000 FEET WITH NO
SIGNIFICANT WEATHER AND/OR OBSTRUCTIONS TO VISIBILITY.

# INDICATES UNOFFICIAL STATION AND DATA

WAZ520-170310-
EAST SLOPES OF WASHINGTON CASCADES

CITY            SKY/WX      TMP DP  RH  WIND    PRES   REMARKS
#BULLFROG       N/A         51  42  71  CALM    N/A
#CLE ELUM HS    N/A         58  33  39  CALM    30.04F
#CLE ELUM LAKE  N/A         56  26  31  CALM    30.08F
#EASTON DOT     N/A         50  36  58  CALM    N/A
#ELK HTS DOT    N/A         59  59  100 SW3     N/A
#GLENWOOD       N/A         58  33  39  S3      30.14S
#NELSON 3SW     N/A         43  40  89  CALM    30.33F
#NILE           N/A         44  38  79  CALM    29.38R
#TEANAWAY 4NE   N/A         57  38  49  W3      N/A
#TROUT LAKE 1NE N/A         56  37  49  CALM    30.15S
#TROUT LAKE 1E  N/A         52  44  74  CALM    30.16S
$$

WAZ521-170310-
SIMCOE HIGHLANDS

CITY            SKY/WX      TMP DP  RH  WIND    PRES   REMARKS
#BICKLETON HS   N/A         60  38  44  W2      30.11F
#CENTERVILLE 1SWN/A         60  37  42  SW7     30.11R
#GOLDENDALE 1NE N/A         58   6  12  W2      N/A
#GOLDENDALE 4W  N/A         61  16  17  NE1     30.15S
#GOODNOE HILLS  N/A         60  39  46  NW10    N/A
#LYLE 6NE       N/A         59  41  51  E6      30.13S
#PITT 4SE       N/A         57  35  43  CALM    30.15S
$$

WAZ026-170310-
KITTITAS VALLEY

CITY            SKY/WX      TMP DP  RH  WIND    PRES   REMARKS
ELLENSBURG AP   CLEAR       50  39  66  N6      30.07F
#ELLENSBURG CWU N/A         58  42  55  CALM    30.03S
#ELLENSBURG 3NE N/A         44  38  79  E3      28.15S
#ELLENSBURG 1E  N/A         54  42  64  CALM    30.12F
#KITTITAS 3S    N/A         49  41  74  CALM    30.09S
#MANASTASH RDG  N/A         58  58  100 S8      N/A
#ROCKY CYN DOT  N/A         62  32  32  W9      N/A
#RYEGRASS DOT   N/A         58  29  33  W5      N/A
$$

WAZ027-170310-
YAKIMA VALLEY

CITY            SKY/WX      TMP DP  RH  WIND    PRES   REMARKS
SUNNYSIDE AP    CLEAR       48  41  77  N5      30.09S
YAKIMA AIRPORT  CLEAR       50  36  58  CALM    30.09S HAZE
YAKIMA-VAGABOND CLEAR       51  32  48  SE3     30.07S
#DONALD 2NE     N/A         58   9  14  CALM    30.10F
#GRANDVIEW      N/A         55  40  57  CALM    30.11S
#MABTON         N/A         51  39  63  S1      30.08F
#MOXEE 2E       N/A         49  N/A N/A CALM    30.01R
#NACHES 2SW     N/A         53  39  59  CALM    30.11F
#OUTLOOK DOT    N/A         58  39  49  CALM    30.05F
#PARKER DOT     N/A         54  39  57  CALM    30.08F
#TERRACE HTS    N/A         55  37  51  CALM    30.07F
#TOPPENISH      N/A         58  41  53  CALM    30.02S
#I82 S UMTANUM RN/A         53  30  41  CALM    N/A
#UNION GAP DOT  N/A         59  36  42  S5      30.12S
#W YAKIMA       N/A         57  37  47  CALM    30.09F
#WHITE SWAN 5E  N/A         53  37  54  CALM    30.11S
#WILEY CITY 3W  N/A         50  33  52  CALM    30.06F
#ZILLAH DOT     N/A         55  41  59  N1      N/A
$$

WAZ028-170310-
LOWER COLUMBIA BASIN...WASHINGTON

CITY            SKY/WX      TMP DP  RH  WIND    PRES   REMARKS
PASCO           CLEAR       53  42  66  N5      30.08S
PROSSER AWOS    N/A         50  41  71  CALM    30.12R
RICHLAND AWOS   CLEAR       59  40  49  CALM    30.08S
#BENTON CITY    N/A         55  40  57  CALM    29.99S
#CONNELL 5N     N/A         56  38  51  CALM    30.09F
#CONNELL 5NW    N/A         56  38  51  CALM    30.05F
#ELTOPIA 6NW    N/A         60  42  51  CALM    29.05F
#KAHLOTUS       N/A         62  33  34  W7      30.09F
#KENNEWICK 3S   N/A         60  37  42  CALM    30.09F
#PATERSON       N/A         59  41  51  E2      30.06S
#PROSSER DOT    N/A         58  41  53  CALM    30.09S
#SAGEMOOR 2W    N/A         57  41  55  NW1     29.94F
#TOUCHET 2S     N/A         57  41  55  CALM    30.08S
#WEST PASCO     N/A         56  41  57  CALM    30.07S
$$

WAZ029-170310-
FOOTHILLS OF THE BLUES...WASHINGTON

CITY            SKY/WX      TMP DP  RH  WIND    PRES   REMARKS
WALLA WALLA AP  CLEAR       60  40  47  E7      30.11S
#CLYDE 6NW      N/A         56  32  40  S3      30.09S
#DAYTON SCHOOL  N/A         55  33  43  CALM    30.12S
#DELANEY DOT    N/A         55  32  41  SE2     30.11S
#LOWDEN 2SE     N/A         56  43  62  E2      30.05S
#PLEASANT VIEW 1N/A         57  32  38  S3      30.12F
#PRESCOTT       N/A         55  39  55  CALM    30.10S
#WHITMAN COLLEGEN/A         62  42  48  E3      30.14S
#WAITSBURG 6SSE N/A         52  38  59  SE3     30.15R
#WAITSBURG 8N   N/A         58  N/A N/A S9      29.85F
#WALLA WALLA 5E N/A         54  40  59  E7      N/A
#WHITMAN MISSIONN/A         59  45  60  CALM    30.11R
$$

WAZ030-170310-
BLUE MOUNTAINS...WASHINGTON

CITY            SKY/WX      TMP DP  RH  WIND    PRES   REMARKS
#DIXIE 5SE      N/A         59  35  40  SW7     30.09R
$$

ORZ009-041-WAZ024-170310-
COLUMBIA RIVER GORGE

CITY            SKY/WX      TMP DP  RH  WIND    PRES   REMARKS
HOOD RIVER AP   CLEAR       59  45  60  S5      30.12S
THE DALLES AP   CLEAR       62  44  52  VRB3    30.09F
#ARLINGTON AIRPON/A         63  38  39  SW3     30.10S
#CELILO DOT     N/A         64  40  41  SW6     N/A
#LYLE           N/A         64  45  50  N6      30.11S
#MARYHILL       N/A         61  40  46  N6      29.97S
#MURDOCK        N/A         67  42  40  N8      30.05S
#RUFUS DOT      N/A         66  N/A N/A W2      N/A
#SMITHVILLE     N/A         64  44  48  N6      30.05S

$$

ORZ510-170310-
NORTH CENTRAL OREGON

CITY            SKY/WX      TMP DP  RH  WIND    PRES   REMARKS
#ANTELOPE       N/A         57  36  45  N1      30.04R
#CHENOWITH 1W   N/A         58  39  49  W20     N/A
#COW CYN RST AREN/A         65  28  25  N1      N/A
#DUFUR          N/A         50  40  68  CALM    30.10S
#DUFUR 9E       N/A         59  37  44  NW2     30.16F
#GRASS VALLEY 1SN/A         57  37  47  NE1     30.15S
#KENT DOT       N/A         61  25  25  N5      N/A
#MAUPIN SCHOOL  N/A         66  39  37  CALM    30.14S
#MORO SCHOOL    N/A         57  41  55  S1      30.12S
#SHANIKO 5WSW   N/A         63  -6   6  S1      N/A
#SHANIKO 4NW    N/A         63  26  24  SW1     30.19S
#TYGH VALLEY 2NEN/A         63  41  44  CALM    30.10S
#WAPANITIA AIRPON/A         58  39  49  CALM    30.14S
#WASCO DOT      N/A         58  38  47  E5      N/A
#WASCO 5NE      N/A         54  38  55  SW3     30.12S
$$

ORZ511-170310-
CENTRAL OREGON

CITY            SKY/WX      TMP DP  RH  WIND    PRES   REMARKS
BEND AIRPORT    CLEAR       59  32  36  CALM    30.19S
MADRAS AIRPORT  CLEAR       61  57  87  N6      30.16S
PRINEVILLE AP   CLEAR       52  32  46  CALM    30.18S
REDMOND AIRPORT CLEAR       52  32  46  CALM    30.16F
#ASHWOOD SCHOOL N/A         59  34  39  SW1     30.10S
#BEND 1SW       N/A         55  37  51  CALM    N/A
#BEND-AWBREY    N/A         57  36  45  CALM    30.14S
#BEND-KIM LN    N/A         67  37  33  CALM    30.17S
#CULVER         N/A         66  35  32  CALM    30.00S
#CULVER 8W      N/A         65  26  23  CALM    30.14S
#LAKE BILLY CHINN/A         68  N/A N/A CALM    30.18R
#MADRAS 4S      N/A         66  17  15  CALM    30.14S
#POWELL BUTTE   N/A         62  25  24  S2      30.11F
#PRINEVILLE     N/A         52  39  61  CALM    30.23S
#PRINEVILLE 3N  N/A         50  38  63  E3      30.15S
#WARM SPRINGS   N/A         61  37  41  CALM    29.97R

$$


ORZ509-170310-
EAST SLOPES OF OREGON CASCADES

CITY            SKY/WX      TMP DP  RH  WIND    PRES   REMARKS
SISTERS AWOS    N/A         64  36  35  CALM    N/A
#BLUE BOX PASS  N/A         53  N/A N/A NW2     N/A
#CAMP SHERMAN   N/A         49  40  71  CALM    30.29R
#LA PINE DOT    N/A         60  21  22  CALM    N/A
#LA PINE 4NW    N/A         55  35  47  CALM    30.26S
#LAVA BUTTE DOT N/A         58  24  27  CALM    N/A
#SISTERS ODOT   N/A         61  34  36  CALM    N/A
#SISTERS 3N     N/A         54  31  41  CALM    30.14S
#SUNRIVER       N/A         58  36  44  CALM    30.22S
#TUMALO 3W      N/A         64  31  29  CALM    30.00S
#WANOGA BUTTE D N/A         54  20  26  W8      N/A

$$

ORZ044-170310-
LOWER COLUMBIA BASIN...OREGON

CITY            SKY/WX      TMP DP  RH  WIND    PRES   REMARKS
HERMISTON       N/A         57  37  47  MISG    30.08S
#BOARDMAN SCHOOLN/A         61  41  48  CALM    30.06S
#BOARDMAN 8SW   N/A         61  38  42  S6      30.08F
#ECHO 8SW       N/A         54  41  61  SW5     30.10S
#I-84 EX 198 DOTN/A         62  35  36  NE6     N/A
#IONE SCHOOL    N/A         63  36  36  CALM    30.12S
#UMATILLA       N/A         61  39  44  SE1     30.01S
$$

ORZ507-170310-
NORTHERN FOOTHILLS OF THE BLUES

CITY            SKY/WX      TMP DP  RH  WIND    PRES   REMARKS
PENDLETON AIRPT CLEAR       62  31  31  CALM    30.11S
#ADAMS 3WNW     N/A         61  34  36  E1      30.11S
#ATHENA         N/A         57  37  47  CALM    30.13S
#CAYUSE         N/A         59  38  45  E3      30.10S
#HELIX SCHOOL   N/A         56  36  47  CALM    30.13S
#HELIX 3N       N/A         61  32  33  S7      30.09S
#HOLDMAN 5SE    N/A         57  36  45  CALM    30.10R
#HOLDMAN 6E     N/A         59  34  39  CALM    29.92R
#M-F GROVE ELEM N/A         57  36  45  CALM    30.09S
#M-FREEWATER 5SEN/A         56  39  53  CALM    30.11R
#PENDLETON DNTN N/A         58  30  34  CALM    30.10R
#PDT AQUATIC CTRN/A         59  31  34  CALM    30.11S
#PDT SUNRIDGE   N/A         56  36  47  SE2     30.12S
#PENDLETON 7NW  N/A         57  39  51  CALM    26.69
#PILOT ROCK 1S  N/A         54  28  36  CALM    30.13S
#PILOT ROCK     N/A         55  32  41  CALM    30.14S
#TUTUILLA       N/A         57  38  49  CALM    30.15F
#UMAPINE 2E     N/A         55  42  61  SE1     30.07R

$$

ORZ508-170310-
SOUTHERN FOOTHILLS OF THE BLUES

CITY            SKY/WX      TMP DP  RH  WIND    PRES   REMARKS
LEXINGTON       CLEAR       59  34  39  E8      30.16R
#FOSSIL SCHOOL  N/A         61  34  36  CALM    30.09S
#HEPPNER EOC    N/A         60  34  37  CALM    30.06S
#HEPPNER 4NE    N/A         53  31  43  CALM    30.11S
#LEXINGTON 2SE  N/A         53  35  50  CALM    30.09R
#MIKKALO        N/A         60  31  33  CALM    30.21S
#OLEX 4N        N/A         63  36  36  CALM    30.08F
#RUGGS 5NE      N/A         60  26  27  CALM    30.36R
#RUGGS 2SW      N/A         59  33  37  SW6     30.14S

$$

ORZ502-503-170310-
BLUE MOUNTAINS

CITY            SKY/WX      TMP DP  RH  WIND    PRES   REMARKS
MEACHAM         CLEAR       48  32  54  CALM    30.21R
#BATTLE MTN DOT N/A         56  22  26  S1      N/A
#GRANITE        N/A         43  23  45  S1      30.26R
#GREENHORN 9SW  N/A         46  35  65  CALM    26.40R
#HEPPNER 15SE   N/A         47  33  58  CALM    30.16F
#LADD CYN SMT   N/A         51  23  33  S1      N/A
#LADD CREEK ODOTN/A         52  28  39  SW6     N/A
#LONG CREEK HS  N/A         50  34  54  W1      30.21S
#N POWDER DOT   N/A         52  23  32  SE8     N/A
#PIKES PEAK     N/A         62  32  32  CALM    27.99
#TOLLGATE       N/A         46  29  51  CALM    30.06F
#TROY SCHOOL    N/A         52  38  59  CALM    30.01S
#UKIAH          N/A         52  34  50  CALM    30.14S
#WESTON 4E      N/A         57  32  38  E6      30.09S
$$

ORZ505-170310-
JOHN DAY BASIN

CITY            SKY/WX      TMP DP  RH  WIND    PRES   REMARKS
JOHN DAY        CLEAR       62  30  30  CALM    30.21S
#ANTELOPE 9ESE  N/A         61  33  35  CALM    N/A
#DAYVILLE SCHOOLN/A         60  30  32  CALM    30.11S
#MITCHELL 8NW   N/A         63  28  26  CALM    30.18S
#SPRAY SCHOOL   N/A         55  N/A N/A CALM    N/A
$$

ORZ506-170310-
OCHOCO AND JOHN DAY HIGHLANDS

CITY            SKY/WX      TMP DP  RH  WIND    PRES   REMARKS
#HORSE RIDGE DO N/A         63  27  25  NW3     N/A
#IZEE 6NW       N/A         51  34  52  SE3     N/A
#PAULINA ODOT   N/A         61  28  28  CALM    N/A
#PINE MTN OBS   N/A         57  28  33  CALM    N/A
#PRAIRIE CITY   N/A         55  33  43  CALM    30.34F
#SENECA         N/A         56  N/A N/A N6      N/A
#SENECA 9NW     N/A         46  32  58  CALM    30.28S
$$

ORZ049-170310-
GRANDE RONDE VALLEY

CITY            SKY/WX      TMP DP  RH  WIND    PRES   REMARKS
LA GRANDE       CLEAR       59  26  28  S15G26  30.20S
#COVE           N/A         58  34  40  E1      30.22S
#COVE SCHOOL    N/A         57  32  38  CALM    30.20S
#COVE 6NW       N/A         57  32  38  CALM    30.21R
#ELGIN 3N       N/A         57  26  30  W6      30.15S
#ELGIN 1E       N/A         59  28  30  CALM    N/A
#IMBLER SCHOOL  N/A         54  30  40  CALM    30.15R
#ISLAND CITY 4N N/A         55  50  83  CALM    30.15F
#UNION 1S       N/A         57  30  35  SE6     30.20S
$$

ORZ050-170310-
WALLOWA COUNTY

CITY            SKY/WX      TMP DP  RH  WIND    PRES   REMARKS
#ENTERPRISE HS  N/A         47  35  63  CALM    30.14S
#IMNAHA SCHOOL  N/A         64  28  25  N7      30.16R
#IMNAHA 10S     N/A         58  29  33  SW2     30.17S
#JOSEPH         N/A         46  36  68  SW3     30.41S
#JOSEPH 3N      N/A         42  30  62  CALM    30.23S
#JOSEPH 3W      N/A         44  36  73  SW1     30.63F
#LOSTINE        N/A         45  34  65  CALM    30.06S
#LOSTINE 3SE    N/A         43  32  65  CALM    30.26F
#MT HOWARD 8000 N/A         45  20  36  CALM    30.36F
#PROMISE 1S     N/A         54  31  41  CALM    30.30R
#WALLOWA LAKE   N/A         39  34  82  S1      30.25F
#WALLOWA SCHOOL N/A         46  36  68  CALM    30.15S



$$



USA.gov is the U.S. government's official web portal to all federal, state and local government web resources and services.